Location: Carnières
(50.1682°N, 3.3474°E)
Time: 20:48:18
(UTC+00:00)

SL-16 R/B - Pass Details

Date: 14 August 2024
Orbit: 842 x 845 km, 71.0° (Epoch: 10 September)

Event Time Altitude Azimuth Distance (km) Brightness Sun altitude
Exits shadow 01:41:15 - 277° (W) 2,724 4.6 -21.2°
Reaches altitude 10° 01:42:15 10° 284° (WNW) 2,470 4.5 -21.1°
Maximum altitude 01:46:02 18° 326° (NNW) 1,968 4.4 -20.8°
Drops below altitude 10° 01:49:51 10° 9° (N) 2,477 5.6 -20.5°
Sets 01:53:09 0° 28° (NNE) 3,416 7.0 -20.3°
